[[{"header":{"parameterUnit":"m.s-1","parameterCategory":2,"la1":30.2991,"la2":30.254,"lo1":-89.0895,"lo2":-89.0444,"dy":0.0017,"dx":0.0017,"nx":28,"ny":28,"refTime":"2026-02-13T09:00:00:Z","depth":"0","parameterNumber":2,"parameterNumberName":"U-component_of_CURRENTS"},"data":[0,0,0,0,0,0,0,0,0,0,0,0,0,0,0,0,0,0,0,0,0,0,0,0,0,0,0,0,0,0,0,0,0,0,0,0,0,0,0,0,0,0,0,0,0,0,0,0,0,0,0,0,0,0,0,0,0,0,0.2617,0.2617,0,0.2599,0.2599,0.2598,0.257,0.257,0.257,0.2569,0.2534,0.2533,0.2532,0,0,0,0,0,0,0,0,0,0,0,0,0,0.2643,0.2643,0.2617,0.2617,0.2617,0.2599,0.2599,0.2598,0.257,0.257,0.257,0.2569,0.2534,0.2533,0.2532,0,0,0,0,0,0,0,0,0,0,0,0,0,0.2627,0.2643,0.2617,0.2602,0.2601,0.2599,0.2599,0.2598,0.257,0.257,0.2569,0.2569,0.2534,0.2533,0.2532,0.2536,0,0,0.2529,0.2529,0,0,0,0,0,0,0,0,0.2628,0.2626,0.2604,0.2603,0.2602,0.2588,0.2595,0.2577,0.2571,0.258,0.2569,0.2569,0.2552,0.255,0.2545,0.2534,0.2533,0.2529,0.2529,0.2528,0.2528,0,0,0,0,0,0,0,0.2629,0.2627,0.2608,0.2605,0.2603,0.2603,0.2599,0.2592,0.2567,0.2579,0.2577,0.2579,0.2551,0.2546,0.2544,0.2532,0.2529,0.2528,0.2528,0.2527,0.2554,0.2555,0,0,0,0,0,0,0.2635,0.2628,0.2608,0.2607,0.2617,0.2603,0.2599,0.2591,0.2567,0.2564,0.2579,0.2578,0.2547,0.2545,0.2542,0.2567,0.2528,0.2527,0.2527,0.2553,0.2554,0.2556,0,0,0,0,0,0,0.2636,0.2633,0.2609,0.262,0.2617,0.2603,0.2594,0.2591,0.2589,0.2568,0.2564,0.2581,0.2547,0.2544,0.2545,0.2564,0.2527,0.2526,0.2551,0.2553,0.2555,0.2602,0,0,0,0,0,0,0.2637,0.2633,0.2631,0.262,0.2616,0.2613,0.2595,0.2591,0.2592,0.259,0.2569,0.2564,0.2546,0.2547,0.2545,0.2562,0.2525,0.255,0.2552,0.2555,0.2599,0.2605,0.2611,0,0,0,0,0,0.2637,0.2634,0.2631,0.2629,0.2613,0.2613,0.2612,0.2599,0.2593,0.2595,0.2585,0.2565,0.2561,0.2547,0.2544,0.2562,0.2549,0.2552,0.2554,0.2596,0.2604,0.261,0,0,0,0,0,0,0.2644,0.2631,0.2627,0.262,0.2621,0.2609,0.261,0.2606,0.26,0.2598,0.2577,0.2572,0.2585,0.2569,0.2555,0.2579,0.2554,0.2556,0.2587,0.2594,0.26,0.2608,0.2524,0,0,0,0,0,0.2647,0.2639,0.2633,0.263,0.263,0.2623,0.2623,0.2618,0.2612,0.2608,0.2596,0.2589,0.2595,0.259,0.2588,0.2596,0.2605,0.2608,0.2614,0.2619,0.2626,0.2673,0.2684,0.2565,0.2565,0.2565,0,0,0.2647,0.2641,0.2636,0.2631,0.2628,0.2634,0.2621,0.2624,0.263,0.2606,0.2609,0.261,0.2603,0.2616,0.262,0.2603,0.2657,0.2623,0.2627,0.2631,0.2677,0.2689,0.2699,0.2567,0.2567,0.2567,0,0,0.2649,0.2642,0.2638,0.2642,0.2645,0.2645,0.2649,0.2645,0.2644,0.2653,0.2645,0.2661,0.2651,0.2659,0.266,0.27,0.2691,0.2698,0.2728,0.2774,0.2784,0.2793,0.2814,0.2825,0.2696,0.2696,0.2696,0,0.2654,0.2643,0.264,0.2645,0.2647,0.2652,0.2657,0.2664,0.2662,0.2676,0.2659,0.2688,0.2676,0.2712,0.2721,0.2714,0.273,0.2698,0.2782,0.2791,0.28,0.282,0.2831,0.2698,0.2698,0.2698,0.2698,0,0.2652,0.265,0.2652,0.2656,0.2664,0.2668,0.268,0.2695,0.2699,0.2711,0.2748,0.2744,0.2764,0.2765,0.2749,0.2807,0.2796,0.2789,0.2763,0.2815,0.2832,0.2843,0.2702,0.2701,0.27,0.27,0,0,0.2639,0.2647,0.2646,0.265,0.2667,0.2671,0.2701,0.2729,0.2757,0.2772,0.2809,0.2826,0.2839,0.2842,0.2837,0.2867,0.2931,0.2851,0.2852,0.287,0.3023,0.2975,0.2981,0.2942,0.2945,0.2946,0.3008,0,0.2636,0.2638,0.2647,0.2659,0.266,0.2686,0.2715,0.2749,0.2777,0.2818,0.2848,0.2879,0.2865,0.2876,0.2912,0.2929,0.2963,0.2914,0.2971,0.2972,0.2923,0.2994,0.2857,0.2898,0.3019,0.302,0.3022,0,0.2621,0.2626,0.2629,0.2656,0.2661,0.2676,0.2726,0.2754,0.2828,0.2857,0.2914,0.2936,0.2992,0.2964,0.3043,0.3015,0.3026,0.3034,0.3037,0.2984,0.2945,0.2868,0.2913,0.2811,0.3038,0.3037,0.3035,0,0.259,0.261,0.2608,0.2614,0.2653,0.2669,0.2696,0.2764,0.28,0.2884,0.293,0.3001,0.3037,0.3081,0.3104,0.3081,0.3183,0.3153,0.3123,0.3118,0.3009,0.2991,0.2959,0.3215,0.3215,0.3215,0.3215,0,0.2567,0.2567,0.2593,0.259,0.261,0.2645,0.2685,0.2734,0.2813,0.2869,0.2945,0.3002,0.3071,0.3132,0.3142,0.3174,0.3222,0.3146,0.3143,0.3019,0.3003,0.2912,0.2873,0.3217,0.3217,0.3216,0.3216,0,0.2524,0.2538,0.2542,0.2577,0.2589,0.2601,0.2665,0.2702,0.279,0.2867,0.2897,0.302,0.3102,0.3161,0.3229,0.3217,0.3146,0.3242,0.3081,0.3058,0.2909,0.2877,0.2768,0.2683,0.3216,0.3215,0.3214,0,0.2498,0.2493,0.252,0.2522,0.2532,0.2562,0.2588,0.2675,0.2718,0.287,0.2902,0.3019,0.3082,0.3181,0.3186,0.3213,0.3116,0.3096,0.3026,0.2899,0.2862,0.2751,0.2679,0.2896,0.2893,0.2891,0.2889,0,0.2455,0.2464,0.2469,0.2473,0.2486,0.2507,0.2548,0.2579,0.2692,0.2764,0.2856,0.2918,0.3035,0.3015,0.3071,0.3063,0.2921,0.3044,0.296,0.2657,0.2486,0.2402,0.2847,0.2866,0.2868,0.287,0.2871,0.2872,0.2423,0.2414,0.2419,0.2412,0.2427,0.2425,0.2413,0.2475,0.2524,0.2597,0.273,0.2773,0.2845,0.2901,0.2884,0.2756,0.2765,0.2651,0.2639,0.2549,0.2413,0.2802,0.2789,0.2791,0.2792,0.2793,0.2795,0,0.237,0.2359,0.2356,0.2334,0.2308,0.2344,0.2363,0.2336,0.2342,0.2446,0.2504,0.2536,0.2522,0.2552,0.2486,0.2368,0.2255,0.2284,0.2091,0.2054,0.2443,0.2373,0.221,0.221,0.221,0.221,0.221,0.2211,0.2342,0.2305,0.2291,0.2213,0.2194,0.2125,0.2108,0.2092,0.2126,0.212,0.2126,0.2191,0.2272,0.2239,0.2095,0.2036,0.1865,0.1768,0.1783,0.205,0.2082,0.2113,0.2037,0.1806,0.1806,0.1284,0.128,0.1277]},{"header":{"parameterUnit":"m.s-1","parameterCategory":2,"la1":30.2991,"la2":30.254,"lo1":-89.0895,"lo2":-89.0444,"dy":0.0017,"dx":0.0017,"nx":28,"ny":28,"refTime":"2026-02-13T09:00:00:Z","depth":"0","parameterNumber":3,"parameterNumberName":"V-component_of_CURRENTS"},"data":[0,0,0,0,0,0,0,0,0,0,0,0,0,0,0,0,0,0,0,0,0,0,0,0,0,0,0,0,0,0,0,0,0,0,0,0,0,0,0,0,0,0,0,0,0,0,0,0,0,0,0,0,0,0,0,0,0,0,0.0241,0.0241,0,0.0213,0.0212,0.0212,0.0185,0.0184,0.0184,0.0184,0.0143,0.0142,0.0141,0,0,0,0,0,0,0,0,0,0,0,0,0,0.0234,0.0234,0.0241,0.0241,0.024,0.0213,0.0212,0.0212,0.0185,0.0184,0.0184,0.0184,0.0143,0.0142,0.0141,0,0,0,0,0,0,0,0,0,0,0,0,0,0.0223,0.0234,0.0241,0.0224,0.0223,0.0213,0.0212,0.0212,0.0185,0.0184,0.0184,0.0184,0.0144,0.0142,0.0141,0.014,0,0,0.0137,0.0137,0,0,0,0,0,0,0,0,0.0224,0.0224,0.0227,0.0226,0.0224,0.0203,0.0195,0.0187,0.0185,0.0198,0.0184,0.0184,0.0163,0.016,0.0154,0.0138,0.0137,0.0137,0.0136,0.0136,0.0135,0,0,0,0,0,0,0,0.0225,0.0224,0.0228,0.0227,0.0225,0.0206,0.0204,0.0193,0.0182,0.0197,0.0195,0.0194,0.0162,0.0155,0.0153,0.0136,0.0137,0.0136,0.0135,0.0135,0.0121,0.0121,0,0,0,0,0,0,0.0233,0.0225,0.0229,0.0228,0.0224,0.0206,0.0204,0.0209,0.0182,0.0178,0.0194,0.0193,0.0158,0.0154,0.0151,0.0164,0.0136,0.0134,0.0134,0.012,0.0121,0.0121,0,0,0,0,0,0,0.0233,0.0234,0.0231,0.0226,0.0225,0.0207,0.0212,0.0209,0.0204,0.018,0.0176,0.0194,0.0157,0.0153,0.0146,0.0162,0.0134,0.0133,0.012,0.012,0.0121,0.0181,0,0,0,0,0,0,0.0233,0.0234,0.024,0.0227,0.0225,0.0233,0.0213,0.0208,0.0204,0.0202,0.0178,0.0174,0.0157,0.0148,0.0145,0.016,0.0132,0.0119,0.012,0.0121,0.0178,0.0183,0.0187,0,0,0,0,0,0.0233,0.0247,0.0241,0.0241,0.0234,0.0234,0.0232,0.0216,0.0205,0.0209,0.0191,0.0175,0.0151,0.0148,0.0144,0.0158,0.0119,0.012,0.0121,0.0176,0.0182,0.0187,0,0,0,0,0,0,0.0246,0.0245,0.0238,0.025,0.0245,0.023,0.0232,0.0221,0.0209,0.0205,0.018,0.0175,0.0174,0.0157,0.0154,0.0155,0.0132,0.0132,0.0175,0.0181,0.0186,0.0202,0.0131,0,0,0,0,0,0.0252,0.0262,0.0255,0.0264,0.0264,0.0248,0.0245,0.0236,0.0224,0.0218,0.0202,0.0185,0.0175,0.0171,0.0156,0.016,0.0142,0.0165,0.017,0.0174,0.0184,0.0171,0.0175,0.0124,0.0124,0.0124,0,0,0.0258,0.0259,0.0264,0.0267,0.026,0.0274,0.0246,0.0246,0.0256,0.0216,0.0222,0.02,0.0178,0.018,0.0178,0.0169,0.0178,0.0175,0.0179,0.0187,0.0172,0.0177,0.0182,0.0125,0.0125,0.0125,0,0,0.0281,0.0278,0.0296,0.0298,0.0295,0.029,0.0294,0.0283,0.0277,0.0277,0.0252,0.0241,0.0224,0.0215,0.0208,0.023,0.0201,0.0222,0.0264,0.0251,0.0255,0.0259,0.0241,0.0242,0.0228,0.0228,0.0228,0,0.0288,0.0312,0.03,0.0319,0.0328,0.0303,0.0327,0.0319,0.0307,0.0311,0.0287,0.0268,0.0243,0.0256,0.0258,0.0243,0.0226,0.0246,0.0258,0.0261,0.0264,0.0244,0.0245,0.0231,0.0231,0.023,0.023,0,0.0327,0.0344,0.0356,0.0376,0.0383,0.0397,0.0391,0.0392,0.0378,0.0373,0.0374,0.0337,0.0329,0.0317,0.0292,0.0304,0.0283,0.0264,0.0247,0.0273,0.025,0.025,0.0235,0.0234,0.0233,0.0233,0,0,0.0349,0.0379,0.0383,0.0406,0.0416,0.043,0.0445,0.0461,0.0485,0.0455,0.0481,0.0446,0.0422,0.0411,0.0378,0.0363,0.0358,0.0324,0.0322,0.0312,0.0326,0.0314,0.0312,0.034,0.0341,0.0341,0.0302,0,0.0384,0.0439,0.0441,0.0491,0.0521,0.0509,0.0535,0.0543,0.054,0.0556,0.0515,0.0523,0.046,0.0457,0.0431,0.0383,0.036,0.037,0.0297,0.0295,0.0287,0.0313,0.0343,0.0311,0.0301,0.0301,0.0301,0,0.0425,0.0459,0.0517,0.0565,0.0577,0.06,0.0642,0.0664,0.0674,0.0671,0.066,0.0625,0.0601,0.054,0.0467,0.0476,0.0404,0.0357,0.0354,0.0325,0.0284,0.0283,0.031,0.0219,0.03,0.0301,0.0301,0,0.0459,0.0512,0.0564,0.0579,0.0627,0.0648,0.0675,0.07,0.0739,0.0747,0.0773,0.0724,0.0713,0.0622,0.0508,0.0489,0.0426,0.0387,0.0308,0.0306,0.0308,0.0306,0.0247,0.0331,0.0331,0.0331,0.0331,0,0.0502,0.0542,0.0585,0.0614,0.0685,0.0699,0.0774,0.0788,0.0831,0.0901,0.0838,0.0872,0.0732,0.0673,0.055,0.0438,0.0455,0.0325,0.0301,0.0328,0.0329,0.023,0.0174,0.033,0.033,0.033,0.0331,0,0.0533,0.0557,0.0624,0.0682,0.0703,0.0757,0.0842,0.0903,0.093,0.1016,0.1023,0.0989,0.0919,0.0773,0.0634,0.0509,0.034,0.0341,0.0379,0.0361,0.0198,0.0145,0.0054,0.0007,0.0253,0.0252,0.0252,0,0.0556,0.0593,0.0674,0.0722,0.075,0.083,0.0894,0.0946,0.1019,0.1099,0.1147,0.1102,0.1095,0.0885,0.0664,0.046,0.0344,0.0331,0.0296,0.0204,0.0127,0.0082,0.0047,0.0317,0.0317,0.0317,0.0317,0,0.0603,0.0628,0.0684,0.0782,0.0853,0.0949,0.104,0.1113,0.1194,0.1272,0.1355,0.1356,0.1168,0.0987,0.0697,0.054,0.0281,0.0327,0.0229,0.0175,0.0127,0.0068,0.0317,0.0319,0.0318,0.0318,0.0318,0.0318,0.0636,0.0683,0.0754,0.0848,0.0936,0.1052,0.114,0.1252,0.1382,0.1513,0.1505,0.1542,0.1279,0.09,0.0672,0.0296,0.0286,0.0188,0.0131,0.0094,0.0053,0.0304,0.0279,0.0279,0.0279,0.0278,0.0278,0,0.0675,0.0729,0.0817,0.0928,0.103,0.1071,0.1229,0.1332,0.1494,0.1616,0.1694,0.1597,0.1276,0.0911,0.0418,0.0159,0.0049,0.0018,-0.0034,-0.0063,0.0164,0.0171,0.0128,0.0128,0.0128,0.0128,0.0128,0.0128,0.0697,0.0776,0.082,0.098,0.1064,0.1206,0.1301,0.1463,0.1584,0.1738,0.1774,0.1773,0.1512,0.0672,0.0113,-0.002,-0.0194,-0.0227,-0.0326,-0.0166,-0.0154,-0.0143,-0.0149,-0.0259,-0.026,-0.0512,-0.0514,-0.0516]}],[{"header":{"parameterUnit":"m.s-1","parameterCategory":2,"la1":30.2991,"la2":30.254,"lo1":-89.0895,"lo2":-89.0444,"dy":0.0017,"dx":0.0017,"nx":28,"ny":28,"refTime":"2026-02-13T09:00:00:Z","depth":"2","parameterNumber":2,"parameterNumberName":"U-component_of_CURRENTS"},"data":[0,0,0,0,0,0,0,0,0,0,0,0,0,0,0,0,0,0,0,0,0,0,0,0,0,0,0,0,0,0,0,0,0,0,0,0,0,0,0,0,0,0,0,0,0,0,0,0,0,0,0,0,0,0,0,0,0,0,0.2231,0.2231,0,0.2223,0.2222,0.2222,0.2206,0.2206,0.2206,0.2206,0.2188,0.2187,0.2187,0,0,0,0,0,0,0,0,0,0,0,0,0,0.2236,0.2236,0.2231,0.2231,0.2231,0.2223,0.2222,0.2222,0.2206,0.2206,0.2206,0.2206,0.2188,0.2187,0.2187,0,0,0,0,0,0,0,0,0,0,0,0,0,0.2229,0.2236,0.2231,0.2223,0.2223,0.2223,0.2222,0.2222,0.2206,0.2206,0.2206,0.2206,0.2188,0.2187,0.2187,0.2187,0,0,0.2185,0.2185,0,0,0,0,0,0,0,0,0.223,0.2229,0.2224,0.2224,0.2223,0.2217,0.2218,0.2211,0.2206,0.221,0.2206,0.2205,0.2198,0.2197,0.2193,0.2187,0.2186,0.2185,0.2185,0.2185,0.2184,0,0,0,0,0,0,0,0.223,0.2229,0.2225,0.2225,0.2224,0.2222,0.2221,0.2216,0.2204,0.221,0.2209,0.2212,0.2197,0.2193,0.2192,0.2186,0.2185,0.2185,0.2184,0.2184,0.2222,0.2223,0,0,0,0,0,0,0.2235,0.223,0.2226,0.2225,0.2228,0.2222,0.2221,0.2218,0.2204,0.2202,0.2212,0.2211,0.2194,0.2193,0.2192,0.2223,0.2185,0.2184,0.2184,0.222,0.2222,0.2223,0,0,0,0,0,0,0.2235,0.2235,0.2226,0.2229,0.2228,0.2223,0.2219,0.2218,0.2222,0.2206,0.2204,0.222,0.2194,0.2192,0.2201,0.2221,0.2184,0.2183,0.2219,0.2221,0.2223,0.2266,0,0,0,0,0,0,0.2235,0.2235,0.2238,0.223,0.2228,0.2234,0.222,0.2218,0.2225,0.2224,0.2212,0.2209,0.2194,0.2202,0.2201,0.222,0.2183,0.2217,0.222,0.2222,0.2263,0.227,0.2275,0,0,0,0,0,0.2236,0.2237,0.2238,0.2238,0.2231,0.2234,0.2234,0.2227,0.2226,0.2231,0.2227,0.221,0.2217,0.2203,0.2201,0.222,0.2216,0.2219,0.2222,0.2261,0.2268,0.2275,0,0,0,0,0,0,0.224,0.2236,0.2236,0.2237,0.2241,0.2233,0.2237,0.2236,0.2237,0.2239,0.2222,0.222,0.2238,0.2226,0.221,0.2241,0.2216,0.2218,0.2246,0.2253,0.2259,0.2266,0.2183,0,0,0,0,0,0.2244,0.2245,0.2244,0.2247,0.225,0.2248,0.225,0.2249,0.2248,0.2248,0.2242,0.2241,0.2247,0.2247,0.2248,0.226,0.2264,0.2274,0.228,0.2285,0.2291,0.2327,0.2337,0.2233,0.2233,0.2233,0,0,0.2247,0.2246,0.2246,0.2249,0.225,0.2258,0.2248,0.2257,0.2266,0.2246,0.2259,0.2261,0.2257,0.2273,0.228,0.2265,0.2316,0.2289,0.2293,0.2296,0.2331,0.2341,0.235,0.2235,0.2235,0.2234,0,0,0.2252,0.2253,0.2256,0.2262,0.2271,0.2272,0.228,0.2281,0.2285,0.23,0.2294,0.2312,0.2311,0.2317,0.2318,0.2359,0.2349,0.2361,0.2391,0.2426,0.2435,0.2443,0.2457,0.2466,0.236,0.2361,0.2361,0,0.2258,0.2256,0.226,0.2267,0.2273,0.2282,0.229,0.2299,0.2305,0.232,0.231,0.2341,0.2334,0.2365,0.2378,0.2372,0.2384,0.2362,0.2434,0.2442,0.2449,0.2462,0.2471,0.2363,0.2363,0.2363,0.2362,0,0.2261,0.2267,0.2271,0.2282,0.2293,0.2301,0.2316,0.2334,0.2344,0.2358,0.2395,0.2395,0.2415,0.2418,0.2407,0.2458,0.2447,0.2439,0.2414,0.2462,0.2473,0.2481,0.2367,0.2366,0.2365,0.2364,0,0,0.2251,0.2269,0.227,0.2277,0.2299,0.2305,0.2337,0.2365,0.2394,0.2414,0.245,0.247,0.2484,0.2488,0.2485,0.251,0.2565,0.2497,0.2498,0.2508,0.2635,0.2579,0.2582,0.2573,0.2575,0.2576,0.2621,0,0.2251,0.2262,0.2274,0.2291,0.2296,0.2323,0.2351,0.2386,0.2417,0.2458,0.2484,0.2516,0.2507,0.2521,0.2551,0.2565,0.2591,0.2553,0.259,0.2591,0.2533,0.2592,0.2366,0.2383,0.2629,0.263,0.2631,0,0.2241,0.2251,0.2262,0.2292,0.2299,0.2317,0.2367,0.2397,0.2466,0.2496,0.2548,0.2569,0.2619,0.2596,0.266,0.2639,0.2644,0.2649,0.265,0.2588,0.2551,0.2377,0.2389,0.2645,0.2644,0.2643,0.2642,0,0.2213,0.2239,0.2245,0.2253,0.2294,0.2313,0.2343,0.241,0.2445,0.2526,0.2564,0.2628,0.2663,0.2694,0.2712,0.2693,0.2772,0.2745,0.2699,0.2694,0.2504,0.2479,0.2791,0.2791,0.2791,0.279,0.279,0,0.2194,0.2199,0.2233,0.2235,0.226,0.2298,0.2341,0.239,0.2465,0.2515,0.2583,0.2631,0.2693,0.274,0.2743,0.2755,0.2804,0.2718,0.2711,0.2512,0.2489,0.2715,0.2706,0.2792,0.2792,0.2791,0.2791,0,0.2155,0.2176,0.2186,0.2228,0.2243,0.2262,0.2329,0.2362,0.2447,0.2514,0.2542,0.2653,0.272,0.2763,0.2817,0.2791,0.2803,0.279,0.2545,0.2509,0.2689,0.2682,0.2743,0.2741,0.274,0.2739,0.2738,0,0.2133,0.2133,0.217,0.2176,0.2193,0.223,0.2256,0.2342,0.2382,0.2518,0.2544,0.2648,0.2692,0.2762,0.2737,0.2734,0.2795,0.2523,0.2446,0.2702,0.2689,0.2683,0.2678,0.2206,0.2201,0.2197,0.2193,0,0.2094,0.2108,0.2118,0.2131,0.215,0.2172,0.2217,0.2242,0.2346,0.2404,0.2483,0.2532,0.2612,0.252,0.2538,0.2505,0.2505,0.2438,0.2779,0.2259,0.2201,0.2187,0.2198,0.2156,0.216,0.2162,0.2164,0.2166,0.2065,0.2058,0.207,0.2072,0.2092,0.209,0.2078,0.2132,0.2171,0.2225,0.2344,0.234,0.2371,0.2283,0.221,0.2148,0.2323,0.2203,0.2213,0.2229,0.2165,0.2109,0.2033,0.2036,0.2038,0.2041,0.2043,0,0.2012,0.2006,0.2008,0.1995,0.1972,0.2016,0.2028,0.1993,0.1986,0.2061,0.2101,0.1937,0.1878,0.1904,0.1747,0.1743,0.17,0.1671,0.159,0.1629,0.1664,0.1569,0.128,0.1277,0.1275,0.1273,0,0,0.1984,0.1952,0.194,0.1871,0.1864,0.1801,0.1783,0.1752,0.1762,0.1724,0.1699,0.1831,0.1867,0.1563,0.1516,0.1369,0.1488,0.1312,0.1927,0.1874,0.1906,0.198,0.188,0,0,0,0,0]},{"header":{"parameterUnit":"m.s-1","parameterCategory":2,"la1":30.2991,"la2":30.254,"lo1":-89.0895,"lo2":-89.0444,"dy":0.0017,"dx":0.0017,"nx":28,"ny":28,"refTime":"2026-02-13T09:00:00:Z","depth":"2","parameterNumber":3,"parameterNumberName":"V-component_of_CURRENTS"},"data":[0,0,0,0,0,0,0,0,0,0,0,0,0,0,0,0,0,0,0,0,0,0,0,0,0,0,0,0,0,0,0,0,0,0,0,0,0,0,0,0,0,0,0,0,0,0,0,0,0,0,0,0,0,0,0,0,0,0,0.0223,0.0222,0,0.0197,0.0196,0.0196,0.0179,0.0179,0.0178,0.0178,0.0146,0.0145,0.0144,0,0,0,0,0,0,0,0,0,0,0,0,0,0.0221,0.0221,0.0223,0.0222,0.0222,0.0197,0.0196,0.0196,0.0179,0.0179,0.0178,0.0178,0.0146,0.0145,0.0144,0,0,0,0,0,0,0,0,0,0,0,0,0,0.0211,0.0221,0.0223,0.0211,0.021,0.0197,0.0196,0.0196,0.0179,0.0179,0.0178,0.0178,0.0146,0.0145,0.0144,0.0138,0,0,0.014,0.014,0,0,0,0,0,0,0,0,0.0211,0.0211,0.0213,0.0212,0.021,0.0191,0.0184,0.0177,0.0179,0.019,0.0178,0.0178,0.0161,0.0159,0.0153,0.0137,0.0135,0.014,0.0139,0.0139,0.0139,0,0,0,0,0,0,0,0.0212,0.0211,0.0212,0.0213,0.0211,0.0195,0.0193,0.0182,0.0175,0.0189,0.0187,0.0186,0.016,0.0154,0.0152,0.0135,0.014,0.0139,0.0138,0.0138,0.0118,0.0118,0,0,0,0,0,0,0.0219,0.0212,0.0212,0.0211,0.0211,0.0195,0.0193,0.0197,0.0176,0.0173,0.0186,0.0185,0.0156,0.0154,0.0151,0.0158,0.0139,0.0138,0.0137,0.0118,0.0118,0.0118,0,0,0,0,0,0,0.0219,0.0219,0.0214,0.0211,0.0209,0.0195,0.0199,0.0197,0.0193,0.0174,0.017,0.0186,0.0156,0.0153,0.0147,0.0156,0.0137,0.0136,0.0117,0.0118,0.0118,0.0163,0,0,0,0,0,0,0.0219,0.022,0.0224,0.0212,0.021,0.0213,0.0199,0.0196,0.0193,0.0191,0.0173,0.0169,0.0156,0.0149,0.0146,0.0154,0.0135,0.0117,0.0118,0.0118,0.0161,0.0164,0.0167,0,0,0,0,0,0.0219,0.0229,0.0225,0.0225,0.0217,0.0214,0.0211,0.02,0.0193,0.0196,0.0183,0.017,0.0149,0.0148,0.0145,0.0153,0.0117,0.0117,0.0118,0.0159,0.0164,0.0167,0,0,0,0,0,0,0.0229,0.0228,0.0223,0.0231,0.0225,0.0211,0.0212,0.0203,0.0195,0.0193,0.0174,0.017,0.0167,0.0153,0.0153,0.0147,0.013,0.013,0.0163,0.0167,0.017,0.0185,0.0134,0,0,0,0,0,0.0234,0.0241,0.0235,0.024,0.024,0.0226,0.0223,0.0215,0.0206,0.0202,0.0189,0.0175,0.0165,0.0161,0.0148,0.0148,0.0129,0.0149,0.0152,0.0155,0.0164,0.0143,0.0145,0.012,0.012,0.012,0,0,0.0238,0.0239,0.0242,0.0243,0.0236,0.0245,0.0224,0.0223,0.023,0.02,0.0204,0.0185,0.0166,0.0165,0.0162,0.0156,0.0152,0.0156,0.0158,0.0166,0.0143,0.0146,0.0148,0.012,0.012,0.012,0,0,0.0254,0.0252,0.0265,0.0266,0.0263,0.0258,0.026,0.025,0.0245,0.0244,0.0224,0.0213,0.0197,0.0188,0.0181,0.0194,0.0167,0.0187,0.0219,0.0198,0.02,0.0202,0.0179,0.0178,0.0191,0.0191,0.0191,0,0.0259,0.0277,0.0267,0.0282,0.0289,0.0268,0.0286,0.0279,0.0267,0.0269,0.0252,0.0231,0.021,0.0215,0.0217,0.0203,0.0184,0.0208,0.0203,0.0205,0.0205,0.0182,0.018,0.0194,0.0193,0.0193,0.0193,0,0.0288,0.0302,0.0309,0.0326,0.033,0.034,0.0334,0.0334,0.0323,0.0316,0.0312,0.028,0.0271,0.0258,0.0241,0.0242,0.0224,0.0208,0.0196,0.0211,0.0184,0.0182,0.0197,0.0196,0.0195,0.0195,0,0,0.0303,0.0327,0.033,0.035,0.0356,0.0367,0.0377,0.0386,0.0403,0.0376,0.0391,0.036,0.034,0.033,0.0303,0.0283,0.0266,0.0252,0.025,0.0235,0.0218,0.0203,0.0198,0.0248,0.0248,0.0248,0.0196,0,0.033,0.0373,0.0375,0.0415,0.0439,0.0429,0.0447,0.045,0.0445,0.0453,0.0414,0.0415,0.0369,0.0365,0.0338,0.0289,0.0263,0.0282,0.0202,0.02,0.0188,0.0196,0.0213,0.0168,0.0194,0.0193,0.0193,0,0.0361,0.0389,0.0435,0.0473,0.0483,0.0501,0.0532,0.0548,0.0547,0.0542,0.0528,0.0495,0.0466,0.042,0.0343,0.0357,0.0293,0.0246,0.0243,0.0214,0.018,0.0157,0.0163,0.0189,0.0189,0.019,0.019,0,0.0389,0.0431,0.0473,0.0486,0.0523,0.054,0.0561,0.0576,0.0605,0.0601,0.0614,0.0567,0.0552,0.0466,0.0363,0.0353,0.0272,0.0245,0.0169,0.0167,0.0159,0.0156,0.0186,0.0186,0.0186,0.0186,0.0186,0,0.0423,0.0455,0.049,0.0515,0.0572,0.0582,0.0641,0.065,0.0678,0.0729,0.0666,0.0683,0.0563,0.0497,0.0389,0.0278,0.0289,0.0179,0.0155,0.0174,0.0173,0.0175,0.0174,0.0184,0.0185,0.0185,0.0185,0,0.0447,0.0467,0.0522,0.0569,0.0588,0.0631,0.07,0.0746,0.0759,0.0818,0.0819,0.0775,0.0696,0.0562,0.043,0.0325,0.021,0.0163,0.0192,0.0172,0.011,0.0112,0.0076,0.0075,0.0074,0.0074,0.0073,0,0.0464,0.0494,0.0564,0.0604,0.0627,0.0693,0.0745,0.0784,0.084,0.0881,0.0914,0.0852,0.0825,0.0617,0.0429,0.0241,0.021,0.0121,0.0103,0.012,0.01,0.0103,0.0106,0.0105,0.0105,0.0105,0.0105,0,0.0499,0.0522,0.0568,0.0653,0.0713,0.0792,0.0867,0.0921,0.0979,0.1024,0.1068,0.1045,0.086,0.0679,0.0418,0.0285,0.0151,0.0111,0.0125,0.0133,0.0144,0.0125,0.0128,0.0103,0.0103,0.0103,0.0103,0.0103,0.0525,0.0564,0.0625,0.0706,0.0781,0.0876,0.0945,0.1029,0.1122,0.1194,0.1176,0.1142,0.094,0.0608,0.0384,0.0142,0.0155,0.0059,0.0061,0.0063,0.0079,0.0088,0.0039,0.0039,0.0039,0.0038,0.0038,0,0.0557,0.0602,0.0675,0.0771,0.0856,0.0894,0.1018,0.1087,0.1197,0.1259,0.1291,0.1085,0.0882,0.0635,0.0288,0.0083,0.0066,0.0004,0.0033,0.0037,0.0039,0.0054,0.0007,0.0006,0.0006,0.0005,0,0,0.0573,0.064,0.0677,0.0811,0.0883,0.0999,0.1071,0.1171,0.1238,0.1296,0.1279,0.1243,0.095,0.069,0.0415,0.0212,0.0167,0.0164,0.0213,0.0284,0.0289,0.0095,0.0125,0,0,0,0,0]}],[{"header":{"parameterUnit":"m.s-1","parameterCategory":2,"la1":30.2991,"la2":30.254,"lo1":-89.0895,"lo2":-89.0444,"dy":0.0017,"dx":0.0017,"nx":28,"ny":28,"refTime":"2026-02-13T09:00:00:Z","depth":"4","parameterNumber":2,"parameterNumberName":"U-component_of_CURRENTS"},"data":[0,0,0,0,0,0,0,0,0,0,0,0,0,0,0,0,0,0,0,0,0,0,0,0,0,0,0,0,0,0,0,0,0,0,0,0,0,0,0,0,0,0,0,0,0,0,0,0,0,0,0,0,0,0,0,0,0,0,0.1461,0.1462,0,0.1493,0.1493,0.1493,0.1526,0.1526,0.1527,0.1528,0.157,0.1571,0.1571,0,0,0,0,0,0,0,0,0,0,0,0,0,0.1421,0.1421,0.1461,0.1462,0.1462,0.1493,0.1493,0.1493,0.1526,0.1526,0.1527,0.1528,0.157,0.1571,0.1571,0,0,0,0,0,0,0,0,0,0,0,0,0,0.1442,0.1422,0.1461,0.1484,0.1486,0.1493,0.1493,0.1493,0.1526,0.1526,0.1527,0.1528,0.157,0.1571,0.1572,0.1558,0,0,0.1574,0.1574,0,0,0,0,0,0,0,0,0.1441,0.1443,0.148,0.1482,0.1485,0.1508,0.1494,0.1516,0.1525,0.1509,0.1528,0.1529,0.1551,0.1553,0.1554,0.156,0.1561,0.1574,0.1575,0.1575,0.1575,0,0,0,0,0,0,0,0.1439,0.1442,0.1472,0.148,0.1484,0.1489,0.1493,0.1498,0.1523,0.151,0.1513,0.1519,0.1552,0.1553,0.1556,0.1562,0.1574,0.1575,0.1575,0.1576,0.1652,0.1654,0,0,0,0,0,0,0.1439,0.1441,0.1471,0.1473,0.1467,0.149,0.1494,0.1498,0.1523,0.1528,0.1518,0.1521,0.1552,0.1555,0.1557,0.1624,0.1575,0.1576,0.1576,0.1651,0.1652,0.1654,0,0,0,0,0,0,0.1438,0.1441,0.147,0.1459,0.1464,0.149,0.1494,0.1498,0.1531,0.1529,0.1534,0.1551,0.1552,0.1556,0.1592,0.1623,0.1576,0.1577,0.1649,0.1651,0.1653,0.1704,0,0,0,0,0,0,0.1436,0.144,0.1459,0.1459,0.1464,0.1493,0.1493,0.1498,0.1533,0.1537,0.1558,0.1561,0.1553,0.1591,0.1593,0.1623,0.1577,0.1647,0.165,0.1653,0.1701,0.1708,0.1714,0,0,0,0,0,0.1435,0.1449,0.1459,0.1464,0.1483,0.1494,0.1498,0.1518,0.1534,0.1551,0.1571,0.1562,0.1611,0.1593,0.1595,0.1626,0.1645,0.1649,0.1652,0.1698,0.1707,0.1714,0,0,0,0,0,0,0.1442,0.1453,0.1465,0.1484,0.15,0.1501,0.1524,0.1536,0.1564,0.158,0.1578,0.1582,0.1626,0.162,0.16,0.1658,0.1628,0.1632,0.1662,0.1671,0.1677,0.1679,0.1578,0,0,0,0,0,0.1451,0.1469,0.1477,0.1498,0.1508,0.1523,0.1538,0.1551,0.1568,0.1583,0.1599,0.1618,0.1635,0.165,0.1662,0.169,0.1688,0.1713,0.172,0.1726,0.173,0.176,0.1769,0.1665,0.1665,0.1665,0,0,0.1461,0.1471,0.1483,0.1502,0.1518,0.1534,0.1535,0.1565,0.1587,0.1582,0.163,0.1645,0.165,0.1684,0.1703,0.1687,0.1755,0.173,0.1735,0.1736,0.1764,0.1774,0.1783,0.1668,0.1667,0.1667,0,0,0.1476,0.1499,0.1515,0.1529,0.1559,0.1565,0.1582,0.1603,0.1627,0.1665,0.1672,0.1708,0.1733,0.1743,0.1749,0.1801,0.1791,0.1812,0.1847,0.1876,0.1884,0.1892,0.1899,0.1907,0.1814,0.1814,0.1814,0,0.1492,0.1506,0.1523,0.154,0.1557,0.1583,0.1603,0.1625,0.166,0.1684,0.1691,0.1752,0.1758,0.1796,0.1817,0.1817,0.1826,0.1813,0.1884,0.1892,0.1898,0.1904,0.1912,0.1817,0.1817,0.1817,0.1816,0,0.1503,0.153,0.1543,0.1572,0.1594,0.1617,0.1644,0.1681,0.1716,0.1738,0.18,0.1815,0.1851,0.1861,0.1855,0.1911,0.1899,0.189,0.186,0.1912,0.1915,0.1922,0.1821,0.182,0.1819,0.1819,0,0,0.1496,0.1542,0.1551,0.157,0.1613,0.1627,0.1677,0.1719,0.176,0.1807,0.1857,0.1897,0.1922,0.1931,0.1936,0.196,0.2014,0.1952,0.1952,0.1954,0.2072,0.1936,0.193,0.2023,0.2025,0.2026,0.2053,0,0.1503,0.1536,0.156,0.1602,0.1618,0.1662,0.1702,0.1751,0.1799,0.1855,0.1894,0.1945,0.1943,0.1972,0.2,0.2015,0.2037,0.2007,0.2027,0.2027,0.1895,0.1935,0.2032,0.2059,0.206,0.2061,0.2062,0,0.1497,0.1522,0.156,0.1614,0.1629,0.1664,0.1737,0.1777,0.1859,0.1901,0.1965,0.1997,0.2055,0.204,0.2098,0.2083,0.2087,0.2088,0.2089,0.1948,0.1903,0.1998,0.2075,0.2074,0.2073,0.2072,0.2071,0,0.1462,0.1518,0.1551,0.1568,0.1635,0.1675,0.1721,0.18,0.1844,0.1941,0.1985,0.2055,0.21,0.2127,0.2144,0.2133,0.219,0.2169,0.2046,0.2036,0.2128,0.212,0.2205,0.2205,0.2205,0.2204,0.2204,0,0.1436,0.1466,0.1545,0.156,0.1613,0.1668,0.1736,0.1794,0.1882,0.1931,0.2013,0.2054,0.2129,0.2167,0.2168,0.2127,0.2214,0.2054,0.2036,0.2148,0.2142,0.2132,0.2124,0.2205,0.2205,0.2205,0.2205,0,0.1385,0.1437,0.148,0.1564,0.1597,0.1637,0.1738,0.1777,0.1875,0.1941,0.1976,0.2077,0.2121,0.2166,0.2208,0.2141,0.2123,0.2087,0.2204,0.2192,0.1942,0.1936,0.1941,0.1937,0.1933,0.193,0.1927,0,0.1356,0.1375,0.1474,0.1503,0.1548,0.1619,0.1661,0.1765,0.1803,0.1932,0.1947,0.2037,0.2085,0.2031,0.2095,0.208,0.2054,0.2024,0.1977,0.1934,0.1917,0.1917,0.1916,0.1921,0.192,0.1919,0.1918,0,0.1302,0.1354,0.1392,0.1452,0.1505,0.1548,0.1618,0.1632,0.1742,0.1849,0.1864,0.1878,0.1921,0.1942,0.1946,0.1935,0.2031,0.1983,0.1991,0.1946,0.191,0.1896,0.19,0.1905,0.1906,0.1908,0.1909,0,0.1269,0.1281,0.134,0.1379,0.144,0.1448,0.1498,0.1528,0.1576,0.1709,0.1714,0.1804,0.1903,0.1868,0.1876,0.1851,0.1814,0.1738,0.1757,0.1772,0.1704,0.1632,0.1527,0,0,0,0,0,0.1224,0.1222,0.1256,0.1284,0.1338,0.1373,0.1451,0.1499,0.1604,0.1567,0.1631,0.1658,0.1663,0.1718,0.1656,0.1803,0.1826,0.1722,0.175,0.1831,0.1846,0.178,0,0,0,0,0,0,0.1191,0.1222,0.1222,0.1194,0.1196,0.1238,0.1283,0.1356,0.1339,0.1454,0.1469,0.1554,0.1591,0.1681,0.1625,0.1639,0.1618,0.1784,0.1779,0.1822,0.1836,0.1848,0.1786,0,0,0,0,0]},{"header":{"parameterUnit":"m.s-1","parameterCategory":2,"la1":30.2991,"la2":30.254,"lo1":-89.0895,"lo2":-89.0444,"dy":0.0017,"dx":0.0017,"nx":28,"ny":28,"refTime":"2026-02-13T09:00:00:Z","depth":"4","parameterNumber":3,"parameterNumberName":"V-component_of_CURRENTS"},"data":[0,0,0,0,0,0,0,0,0,0,0,0,0,0,0,0,0,0,0,0,0,0,0,0,0,0,0,0,0,0,0,0,0,0,0,0,0,0,0,0,0,0,0,0,0,0,0,0,0,0,0,0,0,0,0,0,0,0,0.0174,0.0174,0,0.0159,0.0159,0.0159,0.0154,0.0154,0.0154,0.0154,0.0136,0.0136,0.0135,0,0,0,0,0,0,0,0,0,0,0,0,0,0.0171,0.0171,0.0174,0.0174,0.0174,0.0159,0.0159,0.0159,0.0154,0.0154,0.0154,0.0155,0.0137,0.0136,0.0135,0,0,0,0,0,0,0,0,0,0,0,0,0,0.0166,0.0171,0.0174,0.017,0.0169,0.0159,0.0159,0.0159,0.0154,0.0154,0.0154,0.0155,0.0137,0.0136,0.0135,0.0127,0,0,0.0132,0.0132,0,0,0,0,0,0,0,0,0.0166,0.0166,0.0171,0.017,0.017,0.0159,0.0151,0.0148,0.0154,0.016,0.0154,0.0155,0.0144,0.0142,0.0139,0.0126,0.0125,0.0132,0.0132,0.0132,0.0131,0,0,0,0,0,0,0,0.0166,0.0166,0.0168,0.017,0.017,0.016,0.0159,0.0151,0.0151,0.0159,0.0159,0.0158,0.0143,0.014,0.0138,0.0125,0.0132,0.0132,0.0131,0.0131,0.0114,0.0114,0,0,0,0,0,0,0.017,0.0167,0.0168,0.0167,0.0168,0.016,0.0159,0.0162,0.0151,0.0149,0.0158,0.0158,0.0141,0.0139,0.0138,0.0144,0.0132,0.0131,0.013,0.0114,0.0114,0.0114,0,0,0,0,0,0,0.017,0.0171,0.0169,0.0167,0.0166,0.016,0.0163,0.0162,0.0163,0.015,0.0148,0.016,0.0141,0.0139,0.0137,0.0143,0.013,0.013,0.0113,0.0114,0.0114,0.0146,0,0,0,0,0,0,0.017,0.0171,0.0176,0.0167,0.0166,0.0169,0.0163,0.0161,0.0162,0.0161,0.0152,0.015,0.0141,0.0138,0.0136,0.0141,0.0129,0.0113,0.0114,0.0114,0.0145,0.0147,0.0149,0,0,0,0,0,0.017,0.0177,0.0176,0.0176,0.0173,0.0169,0.0168,0.0164,0.0162,0.0164,0.0158,0.015,0.0137,0.0138,0.0135,0.014,0.0113,0.0113,0.0114,0.0144,0.0147,0.0149,0,0,0,0,0,0,0.0177,0.0177,0.0176,0.0182,0.0179,0.0169,0.0171,0.0167,0.0164,0.0164,0.0152,0.015,0.0149,0.0139,0.014,0.0135,0.0123,0.0123,0.0147,0.015,0.0152,0.0164,0.0128,0,0,0,0,0,0.0181,0.0187,0.0183,0.0187,0.0187,0.018,0.0178,0.0175,0.017,0.0169,0.0162,0.0153,0.0146,0.0145,0.0135,0.0134,0.0118,0.0135,0.0137,0.0139,0.0146,0.0124,0.0125,0.0114,0.0114,0.0114,0,0,0.0184,0.0185,0.0188,0.0189,0.0186,0.0193,0.018,0.018,0.0187,0.0167,0.0174,0.0161,0.0147,0.0146,0.0145,0.014,0.0132,0.0139,0.0141,0.0147,0.0124,0.0125,0.0126,0.0114,0.0114,0.0114,0,0,0.0194,0.0195,0.0205,0.0206,0.0206,0.0203,0.0206,0.02,0.0199,0.02,0.0187,0.018,0.017,0.0162,0.0157,0.0164,0.0143,0.016,0.0183,0.0161,0.0162,0.0163,0.014,0.0138,0.0162,0.0162,0.0162,0,0.0198,0.0212,0.0206,0.0217,0.0223,0.0211,0.0225,0.022,0.0215,0.0217,0.0207,0.0193,0.0178,0.0179,0.0181,0.017,0.0154,0.0176,0.0165,0.0165,0.0165,0.0141,0.0139,0.0164,0.0164,0.0163,0.0163,0,0.0217,0.023,0.0235,0.0249,0.0253,0.0262,0.0259,0.026,0.0256,0.0252,0.0249,0.0227,0.0221,0.0211,0.0199,0.0195,0.0181,0.0169,0.016,0.0168,0.0142,0.0139,0.0166,0.0165,0.0165,0.0165,0,0,0.0226,0.0246,0.025,0.0266,0.0273,0.0281,0.029,0.0298,0.0312,0.0294,0.0305,0.0283,0.027,0.0262,0.0242,0.0222,0.0202,0.02,0.0198,0.0181,0.0153,0.0139,0.0134,0.0188,0.0188,0.0188,0.0134,0,0.0244,0.0276,0.028,0.0311,0.0329,0.0326,0.0341,0.0345,0.0343,0.0348,0.0319,0.0322,0.029,0.0289,0.0263,0.0221,0.0197,0.0218,0.0145,0.0143,0.0132,0.0131,0.0187,0.0132,0.0131,0.0131,0.013,0,0.0264,0.0286,0.0321,0.0354,0.0362,0.0379,0.0405,0.0418,0.0418,0.0415,0.0404,0.0381,0.0356,0.0324,0.0254,0.027,0.0217,0.0176,0.0173,0.0148,0.0123,0.0122,0.0125,0.0125,0.0125,0.0126,0.0126,0,0.028,0.0315,0.0348,0.0359,0.0391,0.0408,0.0428,0.0441,0.0464,0.0462,0.047,0.0431,0.0419,0.0347,0.0263,0.0259,0.0178,0.0161,0.0096,0.0094,0.0109,0.0109,0.0107,0.0107,0.0108,0.0108,0.0108,0,0.0299,0.0326,0.0361,0.0381,0.0428,0.044,0.0489,0.0498,0.0521,0.0555,0.0511,0.0516,0.0425,0.0365,0.0278,0.018,0.0188,0.0102,0.0081,0.0123,0.0125,0.0107,0.0107,0.0106,0.0106,0.0107,0.0107,0,0.031,0.0331,0.0375,0.0419,0.0438,0.0475,0.0537,0.0571,0.0584,0.0623,0.0625,0.0584,0.0509,0.0403,0.0289,0.021,0.011,0.0071,0.0126,0.0109,0.0036,0.0039,-0.0004,-0.0005,-0.0006,-0.0006,-0.0007,0,0.0317,0.0341,0.0406,0.0441,0.0464,0.0522,0.0566,0.0602,0.0641,0.0664,0.068,0.0624,0.058,0.0408,0.0292,0.0123,0.0095,0.0038,0.0033,0.0041,0.0025,0.0029,0.0033,-0.0008,-0.0008,-0.0009,-0.0009,0,0.0332,0.0357,0.0395,0.0469,0.0523,0.0588,0.065,0.0681,0.0724,0.0735,0.0727,0.064,0.0553,0.0416,0.0284,0.0161,0.0072,0.0029,0.0029,0.0024,0.0035,0.0021,0.0026,-0.0011,-0.0011,-0.0011,-0.0011,0,0.0345,0.0374,0.0428,0.0494,0.0565,0.0631,0.0665,0.0709,0.0746,0.0765,0.0763,0.0665,0.0618,0.0435,0.0314,0.0192,0.0156,0.0105,0.0101,0.0103,0.0144,0.0175,0.0155,0,0,0,0,0,0.0355,0.0389,0.0449,0.0521,0.0593,0.0637,0.0712,0.0741,0.0778,0.0778,0.0773,0.0691,0.0519,0.0447,0.0323,0.0286,0.0126,0.0133,0.0063,-0.0027,-0.0023,0.0005,0,0,0,0,0,0,0.0361,0.0414,0.0445,0.0533,0.0586,0.0667,0.0717,0.0744,0.0745,0.0761,0.0675,0.0644,0.0479,0.059,0.0315,0.0279,0.0213,0.0059,0.0056,-0.0028,-0.0026,-0.0023,0.0007,0,0,0,0,0]}]]